Torna al catalogo

STARLINK-4493

AttivoComunicazioniVLEO
NORAD 53533·PAYLOAD·🇺🇸 United States

Lanciato Aug 19, 2022 da Cape Canaveral Space Force Station

Loading…

Prossimi Passaggi (prossime 24 ore)

TLE

AggiornatoSource: CelesTrak SupGP

Epoca: Sep 14, 2026, 22:20 UTC

1 53533C 22101G   26257.93104167  .00028319  00000+0  91077-3 0  2574
2 53533  53.1578 293.8048 0001231  82.8682 184.1440 15.31684033    12

Traccia STARLINK-4493 in tempo reale con AllMySat

Download on the App Store